SNUGLITE 2
1 52899U 22065F   26164.68284671  .00000895  00000-0  17864-3 0  9990
2 52899  98.2197 309.5196 0008219  43.0601 317.1243 14.64342046210488
UmKA 1 (RS40S)
1 57172U 23091G   26164.80407623  .00006270  00000-0  28700-3 0  9991
2 57172  97.5057 223.5140 0014114 128.1637 232.0873 15.20781857163495
CubeBel-2 (EU11S)
1 57175U 23091K   26164.84643469  .00013489  00000-0  47935-3 0  9999
2 57175  97.5060 228.0332 0011233 124.6898 235.5401 15.29076885163799
RS-38S
1 57189U 23091Z   26164.82511455  .00016982  00000-0  48694-3 0  9995
2 57189  97.5100 234.2426 0008454  87.6106 272.6105 15.35927076164173
SONATE-2
1 59112U 24043Q   26164.35034011  .00039351  00000-0  51586-3 0  9996
2 59112  97.5519 314.5122 0006880 208.3384 151.7498 15.58447081127293
GRBBeta
1 60237U 24128C   26164.63613419  .00003556  00000-0  24879-3 0  9999
2 60237  61.9894 228.7249 0041102 133.9233 226.5264 15.06618836105730
Curium One
1 60242U 24128H   26164.73231723  .00006855  00000-0  39702-3 0  9996
2 60242  61.9776 218.0110 0040251 129.9198 230.5446 15.12473220105935
ROBUSTA-3A
1 60243U 24128J   26164.62901992  .00006844  00000-0  40508-3 0  9991
2 60243  61.9858 220.8276 0041704 127.4925 232.9974 15.11641418105887
CatSat
1 60246U 24125J   26164.86511426  .00064578  00000-0  83951-3 0  9993
2 60246  97.2086  17.3242 0022241 190.9935 169.0838 15.58284776106878
HYPERVIEW-1G (RS66S)
1 61772U 24199AP  26164.44200519  .00132494  00000-0  88637-3 0  9990
2 61772  97.2884  43.9750 0002868 238.7842 121.3142 15.74899790134088
AO-123
1 61781U 24199AY  26164.84178444  .00008115  00000-0  23596-3 0  9990
2 61781  97.3008  33.5434 0012582 327.3717  32.6749 15.35632443133411
JINJUSat 1B
1 63210U 25052A   26164.68746558  .00016788  00000-0  52168-3 0  9999
2 63210  97.4011  61.4384 0005500  98.7996 261.3870 15.33404070 69560
NUSHSAT 1
1 63211U 25052B   26164.67160472  .00022160  00000-0  63632-3 0  9993
2 63211  97.3994  61.9761 0005180 100.8520 259.3306 15.35845242 69604
TEVEL2-4
1 63213U 25052D   26164.66098885  .00019485  00000-0  58447-3 0  9996
2 63213  97.3918  61.0474 0004795 110.7775 249.3982 15.34498104 69572
TEVEL2-5
1 63214U 25052E   26164.68109434  .00018656  00000-0  56280-3 0  9994
2 63214  97.3917  61.0162 0004691 111.4679 248.7064 15.34327259 69578
TEVEL2-6
1 63215U 25052F   26164.69334495  .00018726  00000-0  56554-3 0  9995
2 63215  97.3920  61.0131 0004626 111.4401 248.7336 15.34291680 69570
TEVEL2-1
1 63217U 25052H   26164.65592041  .00018482  00000-0  56763-3 0  9997
2 63217  97.3891  60.6044 0004579 120.6431 239.5263 15.33760135 69559
TEVEL2-3
1 63218U 25052J   26164.65068985  .00018701  00000-0  57335-3 0  9993
2 63218  97.3895  60.6205 0004575 120.5094 239.6601 15.33815100 69553
TEVEL2-2
1 63219U 25052K   26164.65625368  .00018774  00000-0  57640-3 0  9997
2 63219  97.3888  60.6072 0004613 120.9946 239.1750 15.33768522 69556
TEVEL2-9
1 63237U 25052AD  26164.69444860  .00016401  00000-0  53567-3 0  9996
2 63237  97.3952  60.0277 0007511 140.3804 219.7987 15.31800703 69493
TEVEL2-7
1 63238U 25052AE  26164.66935050  .00016668  00000-0  54931-3 0  9991
2 63238  97.3956  59.9204 0007556 140.9014 219.2775 15.31507331 69483
TEVEL2-8
1 63239U 25052AF  26164.67756597  .00015937  00000-0  52565-3 0  9999
2 63239  97.3953  59.9057 0007630 141.6953 218.4831 15.31490924 69483
SPIRONE
1 66657U 25274H   26164.77114773  .00002013  00000-0  19623-3 0  9996
2 66657  97.7484  94.1114 0013012  32.6725 327.5297 14.93534947 29716
K-HERO
1 66660U 25274L   26164.77669553  .00001612  00000-0  15653-3 0  9994
2 66660  97.7493  94.2754 0014963  35.5851 324.6363 14.93952183 29728
SNUGLITE-III DURI
1 66661U 25274M   26164.76456642  .00001872  00000-0  18067-3 0  9997
2 66661  97.7488  94.2836 0015577  36.3265 323.9009 14.93992527 29729
SAKHACUBE-CHOLBON
1 67290U 25313AU  26164.74793793  .00010055  00000-0  40721-3 0  9994
2 67290  97.3941 239.8254 0009216  17.7131 342.4426 15.24832674 25453
RS95S (QMR-KWT-2)
1 67291U 25313AV  26164.73934255  .00014197  00000-0  55037-3 0  9991
2 67291  97.3939 239.9852 0008561  15.9881 344.1626 15.26212808 25465
Ten-Koh2
1 68261U 25241B   26164.73680356  .00006404  00000-0  27529-3 0  9996
2 68261  51.6690 336.0488 0006153 131.9558 228.1945 15.23867079 14386
JACK-002
1 68417U 26067B   26164.86852132  .00006607  00000-0  31564-3 0  9992
2 68417  97.4564 123.5001 0000597  11.9931 348.1318 15.19358285 11445
DISCO 2
1 68431U 26067R   26164.82311057  .00008555  00000-0  41155-3 0  9991
2 68431  97.4598 123.4439 0003103  49.4579 310.6926 15.19027088 11434
HADES-SA (SpinnyONE)
1 68446U 26067AG  26163.80818706  .00019788  00000-0  94817-3 0  9990
2 68446  97.4393 122.1700 0009698  93.0154 267.2191 15.18919379 11263
PARUS-6U1
1 68456U 26067AS  26164.82551562  .00006244  00000-0  31472-3 0  9999
2 68456  97.4550 123.2407 0007566  80.4228 279.7860 15.17484972 11423
SAL-E
1 68458U 26067AU  26164.82146829  .00008334  00000-0  41608-3 0  9991
2 68458  97.4472 123.1747 0007989  87.8432 272.3716 15.17713495 11425
FSI-SAT 2
1 68792U 26088A   26164.36776721  .00005130  00000-0  34755-3 0  9990
2 68792  97.5051 313.7231 0015554 118.7154 241.5639 15.06804518  7711
OrigamiSat 2
1 68795U 26088D   26163.91742595  .00003406  00000-0  22097-3 0  9995
2 68795  97.5058 313.4073 0016628  95.5779 264.7346 15.08635651  7657
ARICA 2
1 68796U 26088E   26164.38025851  .00004194  00000-0  27281-3 0  9992
2 68796  97.5045 313.8524 0017049  92.2624 268.0557 15.08396644  7725
WASEDA-SAT-ZERO-II
1 68797U 26088F   26164.37650490  .00006285  00000-0  40453-3 0  9994
2 68797  97.5041 313.8562 0016795  92.4188 267.8963 15.08599416  7728
MANGARO-II-Piscus
1 68798U 26088G   26164.36733585  .00004535  00000-0  29138-3 0  9994
2 68798  97.5056 313.8750 0020426  94.6765 265.6798 15.08757249  7727
IO-86
1 40931U          25360.30710720  .00000000  00000-0  12800-3 0    00
2 40931   6.0006 332.5373 0012733 338.8432   8.1437 14.79075515    01
LILIUM-4                
1 71922C 26067AC  26089.50133053 -.00014632  00000+0 -74472-3 0    04
2 71922  97.4497  49.1617 0004341   5.9603 355.7042 15.16896692    16
